Terminal Aerodrome Forecast
Issued by NWS La Crosse, WI

Home | Current Version | Previous Version | Text Only | Print | Product List | Glossary On
Versions: 1 2 3 4 5 6 7 8 9 10 11 12 13 14 15 16 17 18 19 20 21 22 23 24 25 26 27 28 29 30 31 32 33
000
FTUS43 KARX 191725
TAFLSE
TAF
KLSE 191725Z 1918/2018 15004KT P6SM OVC040
     FM200300 15004KT P6SM SCT012 BKN025
     FM201000 15004KT P6SM BKN012=

USA.gov is the U.S. government's official web portal to all federal, state and local government web resources and services.